Find Starlink 11554

NORAD ID: 62833 Int'l Des: 2025-019 Owner: SPXS Country: US Constellation: starlink operational
LEOCIRCULAR

实时位置

正在加载3D地球...

关于 Starlink 11554

正在加载描述...

即将过境

Passes for default location (London). Set your location on the main map for personalized predictions.

高度历史

Loading altitude history...

两行轨道根数

1 62833U 25019E 26127.86224963 .00162942 00000-0 12456-2 0 9991
2 62833 43.0001 309.6169 0002592 276.2863 83.7710 15.70895426 73180
Epoch: May 7, 2026 • Age: 7 hours

当前状态

高度 357.9 km
速度 7.70 km/s
星下点 29.13°N, 174.99°E
发射日期 Jan 27, 2025
运行时间 1.2 years
类型 internet

技术详情

分类 Payload
质量 960.00 kg
干质量 910.00 kg
总质量 960.00 kg
长度 0.30 m
直径 4.10 m
跨度 29.00 m
形状 Box + pan
制造商 SPXS
平台类型 Starlink V2MD
阶段状态 In Orbit
所有者/国家 SPXS/US

Most Searched